Location: Unspecified
(0.0000°N, 0.0000°E)
Time: 07:17:10
(UTC+00:00)

AO-7 - Visible Passes

Search period start: 17 February 2020 00:00
Search period end: 27 February 2020 00:00
Orbit: 1440 x 1458 km, 101.8° (Epoch: 16 February)

Date Brightness Start Highest point End Pass type
(mag) Time Alt. Az. Time Alt. Az. Time Alt. Az.
17 Feb ? 03:10:11 18° S 03:10:11 18° S 03:11:53 10° S visible
18 Feb ? 02:09:19 10° SSE 02:09:19 10° SSE 02:09:29 10° SSE visible
18 Feb ? 04:04:15 11° SSW 04:04:15 11° SSW 04:04:32 10° SSW visible
19 Feb ? 03:03:24 16° S 03:03:24 16° S 03:04:45 10° S visible
19 Feb?04:58:19SW04:58:19SW04:41:10NNWvisible
20 Feb ? 03:57:28 11° SSW 03:57:28 11° SSW 03:57:40 10° SSW visible
21 Feb ? 02:56:36 14° S 02:56:36 14° S 02:57:36 10° S visible
21 Feb?04:51:32SW04:51:32SW04:34:21NNWvisible
22 Feb ? 03:50:41 10° SSW 03:50:41 10° SSW 03:50:46 10° SSW visible
23 Feb ? 02:49:49 12° S 02:49:49 12° S 02:50:24 10° S visible
23 Feb?04:44:45SW04:44:45SW04:27:34NNWvisible
24 Feb ? 03:43:54 10° SSW 03:43:54 10° SSW 03:26:43 - NNE visible
25 Feb ? 02:43:03 10° SSE 02:43:03 10° SSE 02:43:09 10° S visible
25 Feb?04:37:58SW04:37:58SW04:20:46NNWvisible
26 Feb?03:37:07SSW03:37:07SSW03:19:55NNEvisible
